Location: Columbia
(38.9520°N, 92.3340°W)
Time: 04:59:45
(UTC-05:00)

CZ-2C R/B - Visible Passes

Search period start: 22 May 2015 00:00
Search period end: 01 June 2015 00:00
Orbit: 705 x 908 km, 98.1° (Epoch: 21 May)

Date Brightness Start Highest point End Pass type
(mag) Time Alt. Az. Time Alt. Az. Time Alt. Az.
22 May 5.9 01:30:24 10° ENE 01:30:57 10° ENE 01:31:52 10° NE visible
22 May 3.2 03:08:13 44° SSE 03:09:55 79° ENE 03:15:29 10° N visible
22 May 5.0 04:49:17 11° W 04:50:40 12° W 04:52:23 10° WNW visible
23 May 4.0 02:43:12 30° SE 02:45:22 47° ENE 02:50:42 10° N visible
23 May 4.4 04:24:16 19° WSW 04:25:36 21° W 04:29:35 10° NW visible
24 May 4.8 02:18:11 19° ESE 02:20:54 29° ENE 02:25:41 10° N visible
24 May 3.8 03:59:15 30° SW 04:00:40 35° W 04:05:42 10° NNW visible
25 May 5.5 01:53:10 10° ESE 01:56:31 18° ENE 02:00:18 10° NNE visible
25 May 3.2 03:34:14 42° SSW 03:35:53 60° W 03:41:26 10° NNW visible
26 May 5.8 01:30:48 10° ENE 01:32:12 11° ENE 01:33:58 10° NE visible
26 May 3.2 03:09:13 41° SSE 03:11:13 82° ENE 03:16:53 10° N visible
26 May 5.0 04:50:18 10° WSW 04:52:00 11° W 04:53:36 10° WNW visible
27 May 3.9 02:44:13 29° SE 02:46:39 50° ENE 02:52:07 10° N visible
27 May 4.5 04:25:17 18° WSW 04:26:55 20° W 04:30:55 10° NW visible
28 May 4.7 02:19:13 19° ESE 02:22:11 31° ENE 02:27:08 10° N visible
28 May 3.9 04:00:17 28° SW 04:01:59 34° W 04:07:03 10° NNW visible
29 May 5.4 01:54:13 11° ESE 01:57:48 20° ENE 02:01:49 10° NNE visible
29 May 3.3 03:35:17 38° SSW 03:37:11 58° W 03:42:48 10° NNW visible
30 May 5.8 01:31:33 10° E 01:33:28 12° ENE 01:35:44 10° NE visible
30 May 3.2 03:10:17 38° SSE 03:12:31 86° ENE 03:18:16 10° NNW visible
30 May 5.1 04:51:29 10° WSW 04:53:20 11° W 04:54:47 10° WNW visible
31 May 3.9 02:45:17 28° SE 02:47:57 53° ENE 02:53:32 10° N visible
31 May 4.6 04:26:22 17° WSW 04:28:15 20° W 04:32:13 10° NW visible
